CZ-6A DEB, 60639

Orbit data source: Space-Track

CZ-6A DEB, 60639 is space debris in LEO originally from a launch on Tue, 06 Aug 2024 UTC launched from the Taiyaun Space Center, China (TSC). Debris objects in space refer to the collection of defunct objects orbiting the Earth. Examples of debris include non-operational satellites, rocket bodies, and fragments generated from explosions, collisions, or faulty payload assembly.

Loading next visibility...
Identifier
60639, 2024-140AQ
Orbit
LEO
Country
Flag of CNCN / PRC
Related business
Manufacturer
SAST
Mission
Spacecraft
Bus & Motor
Unknown
Mass
Unknown
Launch date (UTC)
2024-08-06 (1 year ago)
Launch vehicle
Unknown
Launch site
Taiyaun Space Center, China (TSC)
Object type
Payload
Rocket body
Debris
Shape & HBR
Unknown shape, 0.3 m
Radar Cross Section
Small (<0.1 m²)

Expand to show TLE details & history
Last TLE update: 1 day ago

TLE from 1 day ago
0 CZ-6A DEB
1 60639U 24140AQ  25351.31281233  .00000186  00000-0  19195-3 0  9997
2 60639  88.4718 275.6614 0453781 248.1891 107.0402 13.35963818 66210
Epoch: 2025-12-17T07:30Z
TLE epoch observation values (Epoch: 2025-12-17T07:30:26.985Z)
Latitude
-0.00002°
Longitude
76.86449°
Altitude
1,240.899 km
Speed
7.179 km/s
True Right ascension
18h 22m 38s
True Declination
0° 00' 00"
Sunlit
Object was in daylight at epoch
Visualization orbit readout
Latitude
Unknown
Longitude
Unknown
Altitude
Unknown
Speed
Unknown
Apparent Right ascension
Unknown
Apparent Declination
Unknown
Sunlit
N/A
Visualization observer readout
Local Sidereal Time
10:08:08
Azimuth
Unknown
Elevation
Unknown
Doppler factor
Unknown
Orbital elements
Apogee altitude
1,461.735 km
Perigee altitude
781.104 km
Semi-major axis
7,499.557 km
Eccentricity
0.04538
Inclination
88.4718°
RAAN
275.6614°
Arg. of periapsis
248.1891°
True anomaly
111.92462°
Mean anomaly
107.0402°
Eccentric anomaly
109.49118°
Mean motion
3.34187 °/min
Orbital period
107.72 mins
BSTAR
0.00019195
Loading maneuver chart data...
Computing Atmospheric mass density...

Documentation

Showing up to 5 results
|